Theta_e
335 338 340 340 340 340 340 340 340 339 337 336 335 334 333 333 334 335 335 334 334 334 333 329 326 324 324 325 326 327 328 330 331 329 324 319 317 317 321 325 326 326 326 326 326 326 324 324 325 326 328 328 330 334 334 333 334 335 335 335 334 334
337 339 340 340 340 340 340 340 339 339 337 336 335 333 332 334 336 336 336 336 335 336 336 333 331 330 330 330 330 330 331 332 333 333 331 329 324 318 317 318 322 324 324 324 326 328 327 325 326 328 330 332 334 335 334 335 335 334 335 334 333 333
338 339 340 341 340 341 341 339 339 338 336 336 335 332 333 335 336 336 336 336 336 336 338 338 337 337 336 336 335 334 335 334 333 333 333 333 333 329 323 318 316 317 320 323 327 330 331 330 330 332 333 333 333 332 333 333 333 333 334 333 333 333
339 340 341 340 340 341 340 339 338 337 336 335 334 333 335 335 336 336 336 336 336 336 337 338 339 338 337 337 337 337 337 336 334 334 334 333 333 334 332 329 322 318 319 324 327 329 330 331 332 332 332 332 331 331 332 332 332 333 333 333 333 332
340 340 340 340 340 340 339 338 337 336 336 334 334 335 336 336 336 336 336 336 336 336 336 335 336 336 337 337 338 337 337 337 336 335 335 333 333 334 334 334 331 327 327 328 329 331 332 333 334 334 333 332 332 332 332 333 332 332 333 333 333 333
340 340 340 340 340 339 338 338 337 336 335 334 334 335 336 337 337 336 337 337 336 336 336 336 337 337 337 337 337 337 337 337 337 336 335 334 334 335 335 335 334 333 333 333 333 334 334 335 335 335 334 334 334 333 333 333 333 334 334 335 335 335
339 340 340 340 339 339 338 337 337 336 335 334 334 335 337 337 337 337 337 337 337 337 337 337 338 338 337 337 337 337 337 337 337 337 335 335 336 336 337 336 336 335 335 336 336 336 336 336 336 336 335 335 335 335 335 335 335 335 336 336 336 336
339 339 340 340 340 339 338 337 337 336 334 333 334 336 337 337 338 338 337 338 338 338 338 338 338 338 338 337 337 337 337 337 337 336 335 336 337 337 337 337 337 336 336 336 336 336 336 336 336 336 336 336 336 336 336 336 336 336 336 336 336 336
339 339 340 340 339 339 338 337 337 335 333 334 335 337 338 338 338 338 338 338 339 338 338 337 338 338 338 336 337 337 337 336 337 337 337 337 337 337 337 337 337 337 337 336 336 337 336 337 336 336 336 335 335 335 335 335 335 335 335 335 335 334
340 340 340 339 340 338 337 337 336 335 334 335 337 337 338 338 339 338 338 339 339 338 338 338 338 339 338 337 336 337 336 336 337 337 337 337 337 337 337 337 337 336 336 336 336 336 336 336 335 335 335 334 334 333 333 333 333 333 333 334 334 334
340 340 339 339 339 338 337 336 336 335 335 337 337 338 338 338 338 338 338 339 339 339 339 339 339 339 338 337 336 337 337 336 336 337 337 336 336 337 337 337 336 336 335 335 335 334 335 334 334 334 333 332 332 331 331 331 331 332 332 333 333 333
339 339 339 339 339 338 336 336 336 335 336 337 338 338 338 339 339 338 339 339 339 339 340 339 339 338 337 336 336 337 337 337 336 336 336 336 336 337 336 336 335 334 334 333 333 333 333 333 333 332 332 331 330 330 330 330 331 331 331 331 331 331
337 338 338 339 340 338 336 336 336 335 336 337 337 338 338 339 339 338 339 339 339 339 339 338 338 337 336 336 336 336 336 336 336 336 336 336 335 335 335 334 334 333 333 333 332 332 332 332 331 331 330 329 329 329 329 329 329 328 327 326 326 326
336 337 338 338 339 338 336 336 336 336 336 337 337 338 338 339 339 339 338 338 339 339 339 338 338 337 336 336 336 336 336 335 335 335 335 335 334 334 334 333 332 332 332 331 331 331 331 330 329 328 328 328 328 327 327 326 324 323 322 320 320 321
337 337 338 337 337 337 336 336 337 337 336 337 337 338 338 339 338 338 338 338 338 338 339 338 337 337 336 336 336 336 336 335 335 334 334 334 334 333 333 332 331 331 331 330 330 329 329 328 327 326 326 326 326 325 323 321 320 319 317 316 316 316
337 337 337 336 335 335 336 336 337 337 337 337 338 338 338 338 337 337 338 337 337 338 338 338 337 336 336 336 336 336 336 335 334 334 333 333 333 332 331 331 330 330 330 329 329 328 328 327 325 324 324 324 323 322 320 317 316 314 313 313 312 312
336 336 335 335 335 336 336 337 337 337 338 338 338 338 337 337 337 338 337 336 336 338 338 337 337 336 336 336 335 335 335 334 333 333 333 332 332 331 331 330 329 329 328 327 327 327 327 325 324 324 323 322 321 320 318 315 313 311 310 309 307 308
335 335 334 334 335 336 337 337 338 338 338 338 337 337 337 337 337 337 336 336 337 338 338 337 337 336 335 335 334 334 334 333 333 333 332 332 331 330 329 329 328 327 325 325 324 323 322 321 323 323 321 320 319 318 315 312 309 308 306 304 303 305
336 336 335 335 335 336 336 337 337 337 337 337 337 336 336 336 336 336 336 337 338 337 337 337 336 336 335 334 334 333 333 332 331 331 331 330 329 328 327 326 325 323 322 321 318 317 316 318 323 323 320 318 317 315 313 311 307 304 302 300 300 302
336 336 335 335 336 336 336 336 336 336 335 335 335 335 336 336 335 335 336 336 336 336 336 336 335 334 334 333 332 332 331 330 329 329 328 327 326 324 324 323 322 320 319 316 313 311 313 317 323 322 319 316 315 313 312 310 306 300 298 299 298 299
335 335 335 336 336 335 336 335 335 335 335 334 335 335 335 335 335 335 335 335 335 335 334 334 333 333 332 331 331 331 330 329 327 326 325 323 322 321 320 320 319 317 314 312 310 309 311 315 320 322 320 317 315 313 311 310 306 299 296 297 297 297
335 335 336 336 336 336 336 335 335 334 334 333 333 335 335 334 335 334 334 334 333 332 332 332 332 331 331 330 330 329 328 326 324 322 321 319 318 317 317 318 316 313 310 310 309 308 309 310 315 318 317 318 319 316 314 310 306 303 297 295 297 296
336 336 336 336 336 336 336 335 335 334 333 333 332 333 334 333 333 333 332 331 330 330 330 330 330 329 329 328 327 326 324 322 320 319 318 316 313 311 311 313 313 311 309 308 308 307 307 306 312 316 315 320 321 320 321 311 305 307 301 296 296 296
336 336 335 335 335 335 335 334 334 333 333 333 331 331 332 330 330 330 329 328 328 327 327 328 327 327 326 325 324 323 321 320 317 316 314 311 308 306 307 309 310 309 308 307 307 307 307 305 307 312 317 321 317 318 323 313 305 307 304 297 295 296
335 335 335 335 335 334 334 333 332 331 332 331 329 330 330 327 326 327 326 325 324 324 324 324 324 324 323 323 322 321 319 317 315 312 310 307 305 305 306 307 308 308 307 307 306 306 306 305 305 306 310 314 315 317 318 309 307 308 304 299 296 295
333 334 334 334 334 334 334 333 332 331 330 329 326 327 328 325 325 325 324 323 322 321 321 321 321 321 320 320 319 318 317 314 312 309 307 305 305 305 306 307 307 307 307 307 306 306 305 305 304 303 303 305 307 309 308 306 309 310 304 300 297 295
332 333 334 334 334 334 334 333 332 332 331 330 327 324 325 325 324 324 322 321 320 319 319 319 319 318 318 318 317 315 313 311 309 307 305 304 305 305 306 307 307 306 307 306 305 305 305 304 303 303 302 300 299 299 300 302 306 308 307 303 297 295
331 332 333 333 334 334 334 332 332 332 330 330 328 324 323 323 322 321 320 319 318 318 317 317 317 317 316 315 314 312 310 309 307 306 305 305 306 306 306 306 306 306 305 305 304 303 303 303 302 301 300 298 296 296 296 298 300 303 305 306 301 297
330 332 333 333 334 334 334 333 332 331 329 327 327 324 322 321 320 319 319 317 317 316 316 316 316 315 314 313 312 310 309 308 307 306 306 306 306 306 306 305 305 305 304 303 302 301 301 299 298 297 297 296 295 295 295 295 297 297 298 302 303 299
331 332 333 333 334 333 333 333 331 330 329 326 324 322 320 319 318 318 318 316 315 315 314 315 314 313 312 311 310 309 308 307 306 306 306 306 305 305 305 305 304 303 302 302 301 300 299 297 296 295 295 295 295 296 296 296 296 296 296 298 299 298
330 332 332 332 333 333 332 332 331 330 330 327 324 321 319 317 316 316 316 314 314 313 313 313 313 312 311 309 309 307 307 307 306 306 305 305 305 304 304 303 303 302 302 301 301 299 297 296 295 295 294 294 295 295 296 296 296 296 296 296 297 297
330 331 332 331 331 332 331 331 331 330 330 328 324 322 320 318 316 316 316 314 312 312 312 312 311 311 310 309 308 307 306 306 306 305 305 305 304 303 302 302 301 302 301 301 300 298 296 295 295 295 294 294 294 294 294 295 295 295 296 296 296 297
329 330 331 331 330 331 331 331 330 330 329 326 324 323 321 319 317 316 315 313 311 311 311 311 310 310 309 308 307 306 306 305 305 305 305 304 304 303 302 302 301 300 300 299 298 296 295 295 295 294 294 293 293 293 293 294 294 294 295 295 295 296
329 330 331 332 332 331 331 330 330 329 328 326 324 322 321 320 317 316 314 312 311 310 310 309 309 308 308 307 306 306 305 305 305 305 305 304 303 303 302 302 300 298 297 297 296 295 295 295 294 294 293 293 292 293 293 293 294 294 295 295 295 296
329 330 330 332 332 331 330 329 329 328 327 325 324 322 320 319 317 315 313 311 309 309 309 308 308 308 307 307 306 306 305 305 305 304 304 304 303 303 302 301 299 296 296 296 295 295 295 294 294 293 293 293 292 292 293 293 294 294 295 295 295 295
330 331 331 332 332 331 330 328 328 327 326 324 323 321 319 316 315 313 311 309 308 308 308 308 307 307 307 307 306 306 306 305 305 304 304 304 303 302 302 300 298 296 295 295 295 295 294 294 294 294 293 292 292 292 293 293 294 294 295 295 295 295
331 331 332 332 332 330 329 328 327 326 325 323 322 321 318 315 312 310 309 308 307 307 308 307 306 306 306 306 306 306 305 305 304 304 303 303 303 302 301 300 297 296 295 295 295 295 295 294 294 293 292 292 292 292 292 293 293 294 295 295 295 295
Wind_Speed
21 21 21 20 19 18 17 16 15 15 15 15 13 12 11 12 12 11 10 9 10 10 11 11 11 10 10 9 9 9 10 10 9 8 7 5 2 0 1 1 0 1 2 2 3 2 0 2 3 4 4 6 8 8 8 8 7 8 9 11 12 12
20 20 21 20 19 18 17 16 16 15 15 14 13 12 13 13 12 11 10 9 9 10 10 11 11 11 10 9 8 8 8 7 7 8 8 7 5 2 0 1 1 1 1 2 3 3 2 0 1 3 5 7 7 7 8 8 8 9 9 11 11 12
20 20 20 20 19 18 17 17 16 16 15 14 13 14 13 13 11 9 8 7 8 9 9 9 9 8 7 8 7 6 6 5 5 6 7 7 6 5 4 2 0 1 1 3 4 3 3 2 3 4 6 7 8 7 8 9 9 9 10 11 11 12
20 20 20 19 19 18 18 17 17 16 14 14 14 14 13 11 10 8 6 6 7 7 7 6 6 5 5 6 5 4 4 4 4 4 5 5 5 6 6 5 4 3 2 3 3 3 3 3 4 5 6 7 7 8 8 9 9 9 10 10 11 12
21 21 21 20 20 19 18 18 17 16 15 14 14 14 12 10 9 7 5 5 5 5 5 5 5 4 4 4 4 4 3 3 3 4 4 4 4 5 6 6 5 4 4 3 3 3 3 3 4 6 7 7 7 6 7 7 7 8 8 9 10 11
22 21 21 21 21 19 19 19 17 17 15 14 13 13 12 10 8 6 5 4 4 4 4 5 5 4 5 4 4 4 3 2 3 4 4 4 4 4 5 5 5 4 4 4 4 3 4 4 5 6 6 7 7 6 6 6 7 7 8 9 10 11
22 21 21 21 20 19 19 18 17 16 15 14 13 12 11 9 7 4 4 3 2 2 2 3 4 4 4 3 3 4 3 3 3 4 4 4 4 4 5 4 4 4 3 3 4 4 4 4 4 5 5 6 6 6 6 7 7 8 9 10 11 12
21 20 20 19 19 18 18 17 16 16 15 14 13 11 10 8 6 4 3 3 1 1 2 2 2 3 3 2 2 3 3 3 3 4 5 5 4 4 4 3 3 3 3 3 3 4 4 4 4 5 5 6 6 6 7 7 8 8 8 9 10 11
20 20 19 18 17 17 16 16 15 16 15 15 13 11 9 7 5 3 3 2 1 1 1 1 1 1 1 1 1 2 2 2 2 3 4 4 4 3 3 2 2 1 2 2 2 3 4 4 5 5 6 6 7 7 8 8 8 8 8 8 8 9
21 19 18 17 16 15 15 16 15 15 15 14 13 10 8 6 4 3 3 2 1 2 2 1 0 0 0 1 1 2 2 3 2 3 3 3 3 3 2 2 2 2 2 2 3 4 4 4 5 5 6 7 8 9 9 8 8 8 7 7 7 8
20 18 17 16 16 15 15 16 15 14 13 12 11 9 8 5 3 3 3 2 2 2 2 2 1 1 1 1 3 4 4 4 3 3 3 3 3 2 2 2 2 3 3 3 4 4 4 5 5 6 7 8 9 9 9 8 8 8 8 8 9 9
19 17 17 17 17 15 15 15 15 13 12 11 9 8 7 5 4 4 3 3 3 3 2 2 2 2 3 3 5 6 5 4 4 4 4 4 4 3 2 2 2 3 3 4 4 4 5 5 6 7 8 10 10 10 9 8 8 9 11 12 12 13
18 17 17 18 17 16 15 14 14 13 11 10 8 8 8 6 5 5 4 4 4 3 2 2 3 4 4 5 6 7 6 5 5 5 5 4 4 3 2 2 2 3 3 4 4 5 6 6 7 8 9 9 9 9 8 9 10 12 14 16 16 16
19 18 18 18 18 17 15 14 13 12 10 9 8 9 8 7 6 6 5 4 4 3 2 3 5 6 5 5 6 7 7 6 6 5 5 4 3 3 2 2 3 4 4 5 6 6 6 7 8 8 9 9 9 10 11 13 15 16 18 19 19 19
19 19 19 18 18 17 15 14 12 10 9 8 8 8 7 7 7 6 5 4 3 2 3 4 5 6 5 5 5 7 7 6 6 4 4 4 3 3 3 3 4 4 5 5 6 6 7 8 8 8 9 9 11 13 15 17 18 19 20 20 21 21
19 18 18 18 17 17 16 13 11 9 8 8 8 7 7 7 6 6 6 5 3 3 4 5 5 5 5 5 5 6 6 5 4 3 4 4 4 4 4 5 5 6 6 7 7 7 7 7 8 8 9 11 13 14 16 18 19 20 20 20 21 22
19 18 17 18 17 17 15 12 10 9 8 8 8 8 7 7 7 7 7 5 4 4 6 6 5 5 5 5 5 5 5 4 3 2 3 3 4 5 5 6 7 7 8 8 8 8 7 6 6 8 10 12 14 15 17 19 19 20 20 21 22 22
18 17 16 17 17 15 14 12 11 11 10 10 9 8 8 8 9 9 7 7 6 6 7 6 5 5 5 5 4 3 3 2 1 2 3 4 4 5 5 6 6 6 7 8 9 9 7 5 7 10 12 13 14 16 18 20 21 21 21 22 23 22
17 16 16 17 17 16 15 14 13 12 11 11 11 10 10 10 10 9 9 9 9 8 8 7 6 6 5 4 3 2 1 1 1 3 3 3 3 4 5 5 5 5 6 8 9 8 6 5 10 12 13 14 15 17 19 20 22 24 23 23 23 22
16 16 17 18 18 18 16 15 14 14 14 14 14 14 13 11 10 10 11 11 11 10 9 8 7 6 5 4 3 1 1 2 2 3 3 2 3 3 3 4 4 5 5 6 8 8 6 8 12 14 13 14 14 16 18 20 23 26 26 24 23 23
17 18 20 21 20 20 18 17 17 17 18 18 17 16 15 14 13 12 13 12 11 10 10 9 8 6 4 3 1 1 3 3 3 3 2 2 4 3 3 3 4 6 7 9 13 14 9 9 11 12 10 10 11 12 15 19 23 26 28 26 24 24
20 22 22 22 22 21 19 19 18 19 20 19 18 17 17 16 15 14 13 12 11 11 10 8 7 5 3 2 2 2 3 2 1 2 3 4 4 3 4 4 4 8 11 15 18 18 13 7 6 7 6 5 5 4 6 12 19 22 26 28 25 25
23 23 22 21 21 20 19 18 18 20 20 20 19 18 17 17 15 14 13 12 11 9 8 6 5 3 2 2 2 2 2 1 2 3 3 4 5 6 6 6 6 9 12 17 21 21 20 14 6 5 4 3 1 1 0 6 13 15 20 26 27 26
24 23 22 20 19 19 19 18 18 20 20 20 20 20 18 16 15 13 12 10 8 7 5 4 3 2 2 2 2 2 2 3 4 4 4 5 8 9 10 10 9 10 11 16 21 23 23 21 15 7 3 1 1 2 1 4 10 8 12 21 28 27
22 21 20 19 19 20 20 21 22 22 21 21 21 19 18 16 14 13 11 9 7 5 4 3 3 3 3 3 3 3 3 4 5 6 6 8 11 12 12 12 12 12 13 16 20 24 24 24 24 18 11 6 2 2 1 5 7 4 7 15 24 26
19 19 19 19 20 22 22 24 25 25 24 23 21 17 17 16 13 11 10 8 7 5 4 3 3 4 4 5 5 4 4 6 8 8 9 10 13 14 14 15 14 14 15 15 18 23 23 23 26 26 23 18 12 7 2 3 2 2 6 9 17 24
17 19 20 21 22 23 24 25 25 24 24 24 21 17 16 15 13 11 9 8 7 6 4 4 5 6 6 6 6 7 7 8 10 11 11 12 14 15 16 17 16 17 18 16 17 22 20 19 22 24 24 23 22 19 12 8 3 1 3 4 11 21
17 20 22 22 23 23 24 25 24 23 22 21 20 19 17 15 13 11 10 8 7 6 6 5 7 8 8 8 8 9 9 11 12 13 13 14 16 17 18 19 18 18 19 19 20 23 23 21 21 20 19 21 22 23 22 19 12 6 2 2 5 13
19 21 23 23 23 23 24 24 24 24 22 20 19 20 18 16 14 12 11 10 8 8 7 7 8 9 10 10 10 11 12 12 13 14 15 16 17 18 18 19 19 18 20 22 22 23 25 25 24 22 20 20 20 20 22 24 21 14 7 3 2 4
20 21 22 23 24 24 25 24 24 24 23 21 21 20 19 17 15 13 12 11 10 9 9 9 11 11 11 11 12 12 13 14 14 15 16 17 17 18 19 19 20 20 21 23 23 23 25 25 26 25 24 24 24 21 19 19 21 18 11 6 3 3
19 21 22 23 24 25 25 24 24 24 23 23 22 21 20 18 16 14 13 12 11 10 11 12 13 13 13 12 13 13 14 15 15 16 17 17 18 19 20 20 21 21 22 23 23 23 25 25 26 27 27 28 27 24 19 15 16 17 12 7 4 4
21 23 24 25 25 25 25 24 24 24 22 23 23 21 20 18 16 14 13 13 12 13 13 14 14 15 14 13 14 15 15 16 16 16 17 18 19 19 20 21 21 22 22 22 22 23 25 26 26 27 28 27 25 24 22 17 15 16 14 9 6 4
21 23 25 27 26 26 25 25 24 23 22 22 22 20 18 17 15 13 12 13 14 14 15 16 16 16 15 14 15 16 16 17 17 17 17 18 19 19 20 21 22 22 22 22 22 24 26 26 26 27 26 25 24 23 21 18 16 16 14 13 12 7
21 23 25 26 27 26 26 25 24 23 22 22 20 19 17 15 14 13 12 13 14 15 16 17 17 17 16 16 16 16 17 17 17 17 17 18 19 20 20 21 22 23 23 23 23 25 26 26 26 25 25 24 24 23 20 18 16 16 15 15 16 12
25 26 26 26 27 27 25 24 24 22 22 21 19 18 16 14 13 13 13 14 15 16 17 18 18 17 17 16 17 17 17 17 17 17 17 18 19 20 20 22 23 24 24 24 24 25 25 25 25 25 24 24 24 23 21 19 17 16 16 15 16 15
27 28 27 27 27 26 25 24 23 22 21 20 19 18 16 15 14 13 13 15 17 17 17 18 18 18 17 17 17 18 18 17 17 17 17 18 19 19 20 21 23 24 25 23 23 24 24 24 24 23 23 22 23 24 22 20 19 17 16 14 14 15
26 27 27 27 26 25 24 23 22 22 21 21 20 18 17 16 15 15 15 16 17 18 18 18 18 18 17 17 18 18 18 18 17 17 17 18 18 19 19 21 23 24 24 23 23 24 23 24 23 22 22 22 22 23 22 21 20 17 15 14 13 13
Wind_Direction
165 163 162 159 159 159 158 158 155 155 154 149 145 141 139 133 126 121 116 110 105 101 95 94 98 95 89 82 76 75 72 69 69 71 72 73 75 127 234 221 134 58 51 51 45 43 53 237 259 279 294 312 324 334 341 345 347 346 349 349 348 346
168 166 164 161 161 160 162 163 160 160 157 152 147 144 141 134 127 121 119 114 110 107 100 95 93 90 86 79 76 75 73 69 66 65 62 62 63 60 360 252 257 293 354 24 25 25 28 33 307 314 312 313 315 321 328 333 336 337 343 346 347 349
171 170 167 164 162 163 168 166 164 163 158 155 151 147 143 136 129 124 122 119 117 112 107 101 91 85 76 73 75 73 72 69 66 63 59 55 54 57 59 54 15 321 14 35 36 34 32 19 354 337 323 312 306 310 319 325 329 334 341 344 344 345
175 173 169 166 166 170 172 168 165 163 161 160 155 148 142 138 134 128 121 117 119 115 110 105 93 81 67 69 69 60 63 69 74 70 62 56 55 57 57 58 65 69 60 49 37 31 29 18 7 358 346 330 315 309 314 320 323 328 335 338 341 343
179 176 171 169 172 174 173 170 167 164 164 164 157 149 141 139 136 128 116 113 118 112 107 98 86 71 58 62 58 41 35 57 81 80 72 68 65 61 59 62 65 70 67 53 41 31 29 25 17 7 3 358 346 329 322 321 322 324 331 338 344 348
182 179 174 174 176 176 175 173 170 166 166 165 160 150 142 139 134 125 116 113 110 99 93 85 70 55 48 47 41 31 23 30 69 83 83 76 71 63 60 65 68 71 67 52 45 35 23 13 5 1 2 4 2 355 345 338 337 338 344 350 354 358
186 181 177 179 179 179 178 176 172 168 167 166 164 155 146 141 136 131 122 117 104 74 64 63 52 46 43 34 25 19 16 10 35 73 76 73 67 57 53 57 63 67 64 54 45 35 24 14 7 8 7 6 1 354 349 347 347 349 354 359 2 5
189 184 181 184 183 183 181 178 176 170 167 167 166 161 154 148 146 152 143 130 92 34 27 34 37 39 34 22 24 16 11 8 32 66 72 75 65 52 46 45 53 65 66 60 49 41 33 27 18 12 7 2 355 347 346 346 346 346 351 0 6 6
191 187 187 187 187 189 182 179 181 174 169 170 170 167 165 160 161 171 162 148 106 66 56 42 23 29 29 21 41 35 36 48 58 70 77 79 70 58 48 44 50 54 53 41 36 39 32 27 18 9 1 354 350 350 350 346 344 341 342 347 352 357
193 190 190 190 191 192 184 183 185 178 174 175 175 174 173 171 176 187 176 166 167 127 120 147 145 180 156 39 97 105 99 107 90 84 89 83 82 76 67 65 53 38 23 11 18 26 23 18 13 6 358 355 356 357 354 350 349 347 348 352 355 5
195 193 192 193 195 193 187 187 187 181 180 182 180 181 181 184 193 191 186 185 191 173 155 166 162 150 129 96 118 120 118 125 120 107 100 89 89 85 77 61 40 30 18 18 21 19 15 12 10 5 359 360 0 359 357 358 3 9 19 27 31 34
196 196 196 198 200 197 192 191 190 184 185 189 188 190 193 203 210 198 200 203 202 204 198 184 151 125 111 117 129 130 130 132 125 112 101 93 91 82 69 51 37 36 28 26 23 20 18 11 8 2 360 1 2 5 11 19 31 42 49 51 51 49
194 198 200 202 204 202 199 196 192 187 188 194 197 204 209 216 216 202 206 214 220 223 199 153 137 130 118 124 132 135 138 130 118 111 106 99 94 83 67 50 37 28 21 17 14 19 17 11 11 5 7 12 18 30 42 52 60 62 63 63 62 62
189 195 200 202 206 206 203 199 195 192 196 205 214 221 220 217 210 201 209 222 229 215 164 139 143 142 127 130 138 138 136 126 118 116 111 101 90 77 49 30 23 11 6 9 11 15 15 21 24 21 30 40 53 68 74 75 75 72 71 70 69 68
189 196 199 202 207 206 203 202 202 203 207 218 223 222 212 202 198 197 205 211 207 176 154 151 151 147 134 140 148 142 134 125 120 114 102 85 67 51 35 23 21 13 8 13 17 16 19 29 34 42 57 70 80 84 82 79 76 72 69 68 68 67
193 197 197 200 204 204 204 205 207 209 210 213 208 197 186 184 188 188 187 186 181 164 164 160 154 154 151 153 152 141 131 121 114 95 82 72 52 37 26 14 10 5 2 4 5 7 14 27 42 63 77 85 89 87 81 76 71 68 65 63 63 64
195 196 194 197 200 201 203 203 199 194 193 191 182 172 166 167 169 168 166 163 163 164 162 158 158 169 170 161 151 139 126 113 96 66 56 43 28 20 8 357 356 355 354 354 351 356 6 21 61 89 93 92 90 84 77 71 66 62 60 58 59 61
196 196 193 196 197 196 195 189 182 178 177 171 161 156 151 149 149 149 150 150 156 157 154 156 165 175 176 164 151 140 127 107 54 14 9 7 6 358 346 342 348 352 355 358 356 357 4 37 102 111 102 95 88 81 74 67 62 57 55 56 57 59
198 198 196 195 192 188 183 177 169 163 160 153 145 143 142 140 137 142 147 148 152 151 151 159 165 173 175 164 155 146 132 74 360 344 343 347 348 343 338 341 355 8 11 16 13 8 18 76 118 122 108 96 86 78 72 64 59 55 53 55 57 60
196 201 197 190 185 179 171 164 159 150 142 138 139 138 135 136 136 142 145 144 145 145 151 157 157 165 168 161 158 153 329 332 331 326 328 338 359 3 357 360 29 43 36 41 39 37 60 101 121 127 115 101 87 75 68 62 58 54 53 55 57 59
191 195 193 187 182 177 169 159 150 143 137 136 139 136 132 135 139 142 143 142 144 146 152 154 155 163 165 171 180 263 296 301 306 317 341 18 30 28 35 48 72 71 62 60 54 49 65 110 126 128 125 112 92 77 65 55 55 54 51 52 55 57
184 186 186 185 182 177 174 167 155 147 142 137 137 137 134 135 137 139 141 142 144 145 149 152 155 165 174 203 240 258 262 263 294 17 36 49 53 61 81 98 102 87 75 66 58 51 54 86 130 133 131 129 105 86 60 43 47 52 50 49 52 54
182 183 183 183 181 176 171 169 161 154 148 139 136 138 137 137 139 142 140 138 139 140 145 149 152 166 185 200 229 231 206 143 94 64 58 72 84 91 99 115 117 100 84 73 64 55 53 59 84 128 115 100 87 335 293 21 27 42 48 45 47 50
186 184 183 181 179 174 164 160 157 152 149 142 137 137 138 138 140 142 137 133 134 133 142 150 154 171 185 180 188 183 150 115 94 82 83 94 95 95 100 108 109 100 86 78 72 62 56 57 63 82 98 119 130 50 79 341 352 19 45 42 43 44
188 182 182 182 178 171 160 154 148 143 141 137 135 138 140 137 136 137 135 132 128 125 132 138 151 162 164 168 163 150 131 108 97 94 96 96 94 94 94 96 96 92 84 83 83 73 64 60 61 65 74 90 85 60 112 309 328 2 32 38 40 39
182 178 181 182 178 172 165 160 152 147 144 140 137 141 145 142 139 140 136 131 125 115 114 117 130 141 146 154 149 133 119 108 103 101 100 97 95 91 88 89 89 90 88 87 89 83 75 70 68 67 71 77 76 81 110 315 332 348 2 27 37 35
173 175 183 179 175 174 168 164 162 158 156 152 146 143 147 149 147 147 139 129 122 109 104 110 121 131 138 144 136 125 116 110 106 103 102 97 94 91 89 90 89 89 89 87 86 87 85 79 75 71 71 75 75 75 72 64 75 25 347 5 23 26
168 179 184 175 174 177 171 167 166 162 158 157 155 147 148 151 148 148 139 127 119 112 110 116 125 132 136 136 129 123 116 111 108 104 101 96 95 95 94 93 90 88 86 82 81 84 83 78 76 75 73 74 73 69 65 66 69 72 78 294 346 14
180 183 181 173 174 177 175 173 168 163 157 156 157 151 151 151 148 146 136 126 120 118 121 126 132 136 136 133 126 121 116 111 108 105 103 101 100 98 95 91 88 85 84 82 80 80 79 75 74 74 72 70 68 63 57 55 53 57 67 24 347 346
182 180 178 175 175 174 175 175 171 168 162 157 156 154 152 149 147 145 134 127 124 125 131 135 137 138 137 132 124 120 116 112 110 108 107 104 101 96 92 90 86 85 85 83 81 79 78 77 75 72 68 65 61 56 50 43 39 41 48 36 16 318
174 182 180 176 176 174 175 176 176 175 169 164 162 159 156 150 147 145 135 130 130 133 138 140 140 140 137 131 125 120 115 115 114 111 108 103 99 96 93 92 90 88 85 84 83 81 81 79 76 72 66 65 63 60 58 50 40 37 41 35 4 324
178 185 179 179 179 176 176 178 179 178 176 173 170 167 162 155 151 146 138 136 139 141 141 141 142 140 137 132 127 122 120 120 116 111 107 102 100 98 96 94 92 89 86 85 85 84 83 80 76 74 69 66 65 63 61 56 50 44 43 36 17 339
184 181 175 178 178 176 178 181 181 181 180 177 173 171 166 159 156 150 146 146 148 148 145 144 144 140 138 135 131 127 124 122 116 111 108 104 103 100 98 95 90 89 89 89 89 87 86 83 78 76 71 68 64 61 59 53 49 45 43 38 28 8
187 182 176 175 174 177 180 181 183 183 182 180 174 171 167 162 159 153 151 153 153 153 149 146 145 141 140 139 135 130 126 121 117 114 111 108 107 103 98 93 89 90 93 94 93 91 89 86 80 75 71 68 63 60 58 53 50 46 43 41 35 23
182 181 179 175 174 179 179 179 182 183 182 181 176 170 165 163 159 154 154 155 155 155 151 148 145 142 142 142 138 132 127 122 118 116 115 113 111 105 99 94 92 94 97 98 96 93 90 86 80 75 70 68 64 61 58 54 53 50 47 46 42 36
177 177 177 176 175 178 177 177 180 182 182 179 174 168 163 159 156 155 156 157 156 155 153 149 145 144 144 143 140 135 129 125 121 118 118 117 113 107 102 97 97 99 100 101 97 93 90 84 79 74 69 67 65 61 58 56 55 53 51 52 48 42
174 172 174 176 176 176 175 175 177 181 181 177 173 170 164 158 154 154 156 157 157 155 153 150 147 147 146 144 143 138 132 128 125 122 120 120 116 111 105 100 100 102 103 102 97 91 86 81 77 74 70 67 64 61 58 57 56 54 52 50 49 43